[[{"header":{"parameterUnit":"m.s-1","parameterCategory":1,"la1":30.2991,"la2":30.254,"lo1":-89.0895,"lo2":-89.0444,"dy":0.0017,"dx":0.0017,"nx":28,"ny":28,"refTime":"2026-02-14T03:00:00:Z","depth":0,"parameterNumber":2,"parameterNumberName":"U-component_of_WINDS"},"data":[0,0,0,0,0,0,0,0,0,0,0,0,0,0,0,0,0,0,0,0,0,0,0,0,0,0,0,0,0,0,0,0,0,0,0,0,0,0,0,0,0,0,0,0,0,0,0,0,0,0,0,0,0,0,0,0,0,0,1.0527,1.0527,0,1.0555,1.0555,1.0556,1.054,1.0539,1.0538,1.0537,1.0568,1.057,1.0571,0,0,0,0,0,0,0,0,0,0,0,0,0,1.0459,1.0461,1.0526,1.0527,1.0527,1.0555,1.0555,1.0556,1.054,1.0539,1.0538,1.0537,1.0568,1.057,1.0572,0,0,0,0,0,0,0,0,0,0,0,0,0,1.0488,1.0461,1.0526,1.0523,1.0522,1.0555,1.0555,1.0556,1.054,1.0539,1.0538,1.0536,1.0567,1.0569,1.0572,1.061,0,0,1.0579,1.058,0,0,0,0,0,0,0,0,1.0487,1.0491,1.0523,1.0523,1.0523,1.0542,1.0543,1.0574,1.054,1.0533,1.0537,1.0536,1.0561,1.0564,1.0572,1.0612,1.0613,1.0579,1.0581,1.0582,1.0582,0,0,0,0,0,0,0,1.0485,1.0489,1.0538,1.0523,1.0523,1.052,1.0522,1.0549,1.0554,1.0534,1.0533,1.0536,1.0561,1.0569,1.0572,1.0614,1.0579,1.0581,1.0583,1.0584,1.0685,1.0686,0,0,0,0,0,0,1.0483,1.0488,1.0537,1.0539,1.0501,1.0522,1.0525,1.0537,1.0553,1.0554,1.0537,1.0535,1.0566,1.057,1.0573,1.0618,1.0582,1.0584,1.0585,1.0684,1.0686,1.0687,0,0,0,0,0,0,1.0481,1.0487,1.0536,1.0513,1.0519,1.0524,1.0538,1.0539,1.0547,1.0556,1.0557,1.0545,1.0565,1.057,1.0601,1.0619,1.0585,1.0587,1.0682,1.0684,1.0686,1.071,0,0,0,0,0,0,1.0479,1.0487,1.0501,1.0513,1.052,1.0563,1.054,1.054,1.0551,1.0549,1.0563,1.0565,1.0565,1.0597,1.0603,1.0622,1.0589,1.0681,1.0683,1.0686,1.0707,1.0712,1.0717,0,0,0,0,0,1.0477,1.0507,1.0502,1.0508,1.0538,1.0564,1.0568,1.0566,1.0553,1.0567,1.0573,1.0564,1.0616,1.0601,1.0607,1.0627,1.068,1.0683,1.0685,1.0705,1.0711,1.0716,0,0,0,0,0,0,1.0498,1.0509,1.0503,1.0538,1.055,1.0561,1.058,1.0573,1.0589,1.0587,1.0585,1.0588,1.062,1.0627,1.0609,1.0664,1.0646,1.065,1.0659,1.0665,1.0669,1.0667,1.0591,0,0,0,0,0,1.0507,1.0526,1.0535,1.0565,1.0571,1.0574,1.0585,1.0583,1.0596,1.0601,1.0608,1.0621,1.064,1.0653,1.0671,1.0708,1.0711,1.0725,1.0729,1.0733,1.0737,1.0756,1.0762,1.0696,1.0696,1.0696,0,0,1.0526,1.0534,1.0546,1.0569,1.0578,1.0598,1.0579,1.0601,1.0616,1.0604,1.0633,1.0639,1.0653,1.0687,1.0703,1.0694,1.0755,1.0737,1.074,1.0741,1.076,1.0766,1.0771,1.0698,1.0698,1.0698,0,0,1.0569,1.0577,1.0603,1.0612,1.0625,1.0627,1.0633,1.0645,1.0648,1.0677,1.0668,1.0686,1.0719,1.0729,1.0739,1.0785,1.0777,1.0791,1.0814,1.0833,1.0838,1.0843,1.0859,1.0864,1.0794,1.0794,1.0794,0,1.0591,1.062,1.0617,1.064,1.065,1.0639,1.0665,1.0674,1.0693,1.0701,1.069,1.0731,1.0739,1.0775,1.0786,1.0794,1.0801,1.0789,1.0838,1.0842,1.0847,1.0862,1.0868,1.0796,1.0796,1.0796,1.0795,0,1.0645,1.0666,1.0685,1.0702,1.0715,1.0739,1.074,1.0753,1.0749,1.0752,1.0782,1.0791,1.0811,1.0819,1.0817,1.0854,1.0848,1.0838,1.0819,1.0854,1.0868,1.0874,1.0798,1.0797,1.0797,1.0797,0,0,1.0704,1.0718,1.0725,1.0733,1.0746,1.0762,1.0786,1.0804,1.0815,1.0828,1.0847,1.0875,1.0865,1.0876,1.0874,1.089,1.0925,1.0878,1.0878,1.0886,1.0966,1.0974,1.098,1.092,1.0921,1.0922,1.0965,0,1.0748,1.0788,1.0786,1.0824,1.0843,1.0832,1.0852,1.0863,1.0866,1.0882,1.0886,1.0905,1.0891,1.0897,1.0913,1.0918,1.0941,1.0914,1.0938,1.0939,1.0935,1.0988,1.0996,1.1036,1.097,1.0971,1.0972,0,1.0805,1.0819,1.0858,1.0868,1.0876,1.0894,1.091,1.0926,1.0937,1.0938,1.0949,1.0944,1.0968,1.0949,1.0981,1.0963,1.0972,1.0976,1.0977,1.0979,1.0957,1.0991,1.1048,1.1054,1.0981,1.098,1.0979,0,1.0842,1.0871,1.0898,1.0905,1.0917,1.093,1.0936,1.0946,1.0957,1.0971,1.0977,1.0994,1.1004,1.1017,1.1016,1.1002,1.1048,1.1029,1.105,1.105,1.106,1.1059,1.1119,1.1067,1.1067,1.1067,1.1066,0,1.0891,1.0916,1.0915,1.0932,1.0959,1.0956,1.0983,1.0987,1.0996,1.1014,1.1006,1.1022,1.1021,1.1037,1.1037,1.1063,1.1068,1.1069,1.1069,1.107,1.1069,1.1076,1.1073,1.1068,1.1068,1.1067,1.1067,0,1.0938,1.0939,1.0968,1.0976,1.0979,1.0998,1.1006,1.1022,1.1024,1.1045,1.105,1.1054,1.1073,1.1073,1.1096,1.1095,1.1127,1.1124,1.1123,1.1122,1.1142,1.114,1.1208,1.1217,1.1159,1.1159,1.116,0,1.0969,1.0988,1.0998,1.1009,1.1015,1.1033,1.1043,1.1041,1.1052,1.1066,1.108,1.1098,1.1112,1.1143,1.1147,1.1164,1.116,1.1183,1.1163,1.1163,1.116,1.1158,1.116,1.1187,1.1188,1.1188,1.1189,0,1.1024,1.1023,1.1039,1.1054,1.1066,1.1079,1.109,1.1099,1.1098,1.1111,1.113,1.1141,1.1163,1.118,1.1196,1.1202,1.1195,1.1195,1.12,1.1201,1.12,1.12,1.1133,1.1193,1.1193,1.1193,1.1192,1.1192,1.1064,1.1079,1.1088,1.1106,1.1113,1.1124,1.1139,1.1142,1.1158,1.1175,1.1173,1.1193,1.1203,1.1224,1.1231,1.1247,1.1239,1.1247,1.1249,1.1251,1.1253,1.1197,1.125,1.125,1.125,1.1249,1.1249,0,1.1117,1.1123,1.1138,1.1154,1.1167,1.1159,1.117,1.1182,1.12,1.121,1.1224,1.1245,1.1262,1.1267,1.1283,1.1295,1.1292,1.13,1.1298,1.13,1.1259,1.1252,1.1301,1.1301,1.1301,1.1301,1.1301,1.1301,1.1147,1.1172,1.1172,1.1202,1.1207,1.1227,1.1234,1.1243,1.1251,1.1275,1.1288,1.1292,1.1299,1.1316,1.1331,1.1332,1.1338,1.1346,1.1346,1.1308,1.1303,1.1298,1.1291,1.1348,1.1348,1.1385,1.1385,1.1386]},{"header":{"parameterUnit":"m.s-1","parameterCategory":1,"la1":30.2991,"la2":30.254,"lo1":-89.0895,"lo2":-89.0444,"dy":0.0017,"dx":0.0017,"nx":28,"ny":28,"refTime":"2026-02-14T03:00:00:Z","depth":0,"parameterNumber":3,"parameterNumberName":"V-component_of_WINDS"},"data":[0,0,0,0,0,0,0,0,0,0,0,0,0,0,0,0,0,0,0,0,0,0,0,0,0,0,0,0,0,0,0,0,0,0,0,0,0,0,0,0,0,0,0,0,0,0,0,0,0,0,0,0,0,0,0,0,0,0,2.5376,2.5375,0,2.5337,2.5336,2.5336,2.539,2.5392,2.5394,2.5396,2.5347,2.5344,2.5341,0,0,0,0,0,0,0,0,0,0,0,0,0,2.5489,2.5486,2.5376,2.5375,2.5375,2.5337,2.5336,2.5336,2.539,2.5392,2.5395,2.5397,2.5348,2.5345,2.5341,0,0,0,0,0,0,0,0,0,0,0,0,0,2.5443,2.5486,2.5376,2.5397,2.5399,2.5337,2.5336,2.5336,2.5389,2.5392,2.5395,2.5398,2.535,2.5345,2.5341,2.5253,0,0,2.5326,2.5324,0,0,0,0,0,0,0,0,2.5446,2.5439,2.5395,2.5396,2.5397,2.5372,2.5358,2.5307,2.5389,2.5393,2.5396,2.5399,2.5352,2.5348,2.5334,2.5251,2.5249,2.5326,2.5323,2.5321,2.532,0,0,0,0,0,0,0,2.5449,2.5441,2.536,2.5394,2.5396,2.5406,2.5403,2.5349,2.5356,2.5393,2.5396,2.5392,2.5354,2.5338,2.5333,2.5248,2.5326,2.5322,2.5319,2.5317,2.5089,2.5086,0,0,0,0,0,0,2.5451,2.5443,2.5361,2.5359,2.543,2.5402,2.5398,2.5377,2.5357,2.5357,2.5389,2.5394,2.5345,2.5338,2.5331,2.5227,2.5321,2.5317,2.5314,2.5092,2.5088,2.5085,0,0,0,0,0,0,2.5453,2.5443,2.5363,2.5402,2.5393,2.5397,2.5372,2.5374,2.5359,2.5355,2.5355,2.5372,2.5347,2.5338,2.5272,2.5226,2.5315,2.531,2.5096,2.5091,2.5087,2.5017,0,0,0,0,0,0,2.5456,2.5443,2.5412,2.5401,2.5391,2.5307,2.5369,2.5371,2.5352,2.5358,2.5339,2.5339,2.5348,2.5279,2.5268,2.5221,2.5307,2.51,2.5094,2.5088,2.5023,2.501,2.4999,0,0,0,0,0,2.546,2.5392,2.541,2.54,2.5352,2.5304,2.5298,2.5313,2.5348,2.5315,2.5312,2.5339,2.5233,2.5272,2.5259,2.5211,2.5103,2.5096,2.5089,2.5029,2.5013,2.4999,0,0,0,0,0,0,2.5395,2.5391,2.5411,2.5339,2.5322,2.5313,2.5272,2.5295,2.5265,2.5272,2.529,2.5285,2.5214,2.5206,2.5249,2.5124,2.5174,2.5163,2.5132,2.5117,2.5105,2.5108,2.5303,0,0,0,0,0,2.5373,2.5337,2.5334,2.527,2.5261,2.5268,2.5248,2.5261,2.5243,2.5235,2.5227,2.5206,2.5168,2.5142,2.5107,2.5023,2.5018,2.4983,2.497,2.4961,2.4951,2.4904,2.4888,2.5061,2.5061,2.5061,0,0,2.5325,2.5319,2.5294,2.5257,2.5246,2.5205,2.5261,2.5216,2.5186,2.5227,2.5165,2.5158,2.5136,2.506,2.5026,2.5051,2.4902,2.4951,2.4943,2.4939,2.4895,2.4879,2.4864,2.5056,2.5057,2.5057,0,0,2.5218,2.5211,2.5156,2.5144,2.5126,2.5131,2.5118,2.5106,2.5104,2.5043,2.5073,2.5035,2.497,2.4952,2.4934,2.482,2.4843,2.4808,2.4744,2.4698,2.4685,2.4672,2.463,2.4615,2.4799,2.4799,2.4799,0,2.516,2.5104,2.5125,2.5078,2.5059,2.5098,2.5041,2.5027,2.4997,2.4983,2.5012,2.493,2.4917,2.4837,2.481,2.4794,2.4778,2.481,2.4685,2.4673,2.4662,2.4622,2.4607,2.4795,2.4795,2.4795,2.4796,0,2.5033,2.4993,2.495,2.4924,2.4901,2.4849,2.486,2.4833,2.4849,2.485,2.4785,2.4772,2.4734,2.4716,2.473,2.4638,2.4653,2.4683,2.4733,2.4641,2.4604,2.4589,2.4788,2.479,2.4791,2.4792,0,0,2.4883,2.487,2.4853,2.4842,2.4825,2.4793,2.4742,2.4708,2.4684,2.4662,2.4618,2.4562,2.4589,2.4569,2.4581,2.4541,2.4449,2.4575,2.4575,2.4551,2.4345,2.4322,2.4304,2.4465,2.4462,2.446,2.4347,0,2.4775,2.4691,2.4708,2.4623,2.4585,2.4621,2.4576,2.456,2.4559,2.4524,2.4523,2.4482,2.4523,2.4511,2.4473,2.4469,2.4408,2.4477,2.4422,2.4419,2.4425,2.4285,2.426,2.4154,2.4332,2.433,2.4328,0,2.4638,2.4614,2.4527,2.4516,2.45,2.446,2.443,2.4397,2.4378,2.438,2.4358,2.4377,2.4323,2.4375,2.43,2.4347,2.4325,2.4319,2.4315,2.431,2.4367,2.4274,2.412,2.4104,2.4305,2.4307,2.4309,0,2.4536,2.4481,2.4422,2.4411,2.4397,2.4367,2.436,2.4344,2.4322,2.4294,2.428,2.4245,2.4226,2.4197,2.4205,2.4242,2.4127,2.418,2.4125,2.4125,2.4098,2.41,2.3938,2.4086,2.4087,2.4087,2.4087,0,2.4413,2.4358,2.4376,2.4339,2.4277,2.4296,2.4234,2.423,2.4216,2.4176,2.4205,2.4167,2.418,2.4142,2.4148,2.4084,2.4075,2.4073,2.4075,2.407,2.407,2.4055,2.4062,2.4083,2.4084,2.4084,2.4085,0,2.4288,2.4298,2.4236,2.4228,2.4225,2.418,2.4172,2.4136,2.4138,2.4088,2.4078,2.408,2.4036,2.4042,2.3993,2.3997,2.3917,2.3928,2.3924,2.3926,2.3871,2.3875,2.3692,2.3669,2.3833,2.3832,2.3831,0,2.4208,2.4167,2.4156,2.4134,2.4124,2.4087,2.4066,2.4082,2.4058,2.4033,2.3999,2.3959,2.3928,2.3857,2.3852,2.3814,2.3824,2.3763,2.3818,2.3814,2.3821,2.3823,2.3818,2.3751,2.3749,2.3748,2.3746,0,2.4066,2.4073,2.4043,2.4013,2.3987,2.3964,2.3944,2.3923,2.3937,2.3908,2.3866,2.3842,2.3793,2.3751,2.3716,2.3705,2.3726,2.3729,2.3714,2.3708,2.3707,2.3706,2.3893,2.3733,2.3734,2.3735,2.3736,2.3736,2.396,2.3925,2.3912,2.3876,2.3863,2.3843,2.3809,2.3808,2.3774,2.3738,2.3749,2.37,2.368,2.3635,2.3621,2.3581,2.3603,2.3581,2.3576,2.357,2.3563,2.3715,2.3574,2.3575,2.3575,2.3575,2.3576,0,2.3817,2.3811,2.3779,2.3751,2.3722,2.3749,2.3727,2.37,2.3658,2.364,2.3609,2.3559,2.352,2.3512,2.3474,2.3443,2.3452,2.3432,2.3434,2.3431,2.3546,2.3562,2.3426,2.3426,2.3426,2.3426,2.3426,2.3426,2.374,2.3682,2.3687,2.3621,2.3615,2.357,2.3555,2.3536,2.3521,2.3466,2.3434,2.343,2.3415,2.3376,2.334,2.3338,2.3322,2.3298,2.33,2.3408,2.3423,2.3437,2.3452,2.3295,2.3294,2.3188,2.3187,2.3186]}]]